FALCON 9 DEB (45107 NORAD) Tracking and Keplerian Element Data

This shows tracking and keplerian element data for the satellite.

Feedback or suggestion? Click here.




ElementValue
Catalog45107
NameFALCON 9 DEB
Epoch Orbit369
Epoch Day52.63211729
Epoch Year2020
RAAN117.8799
Inclination52.9976
Eccentricity0.0013878
Argument of Perigee64.6266
Mean Anonmoly295.6199
Mean Motion16.03634953
Decay Rate0.00215953
L11 45107U 20006BR 20052.63211729 .00215953 31728-4 33284-3 0 9998
L22 45107 52.9976 117.8799 0013878 64.6266 295.6199 16.03634953 3695

Live tracking and technical data element details for FALCON 9 DEB (NORAD 45107). FALCON 9 DEB can be tracked NOW for your location showing map with azimuth and elevation plus other details from your city location.

Track the satellite on the map from your city or location and see movement details for azimuth, elevation, latitude, longitude, range, height, and movement on the map or in text.







IsCatalogInMostPopularTable: catalog: 45107, numindb: 8
Update: records affected: 1



GetName: 45107 FALCON 9 DEB

Hit Count: updated at: Wed, 26 Feb 2020 15:40:58 GMT